Temperature
15 15 15 15 15 15 15 15 15 15 15 15 15 15 15 15 15 15 15 15 15 15 15 15 15 15 15 15 15 14 14 15 15 15 15 15 15 15 15 15 15 15 15
15 15 15 15 15 15 15 15 15 15 15 15 15 14 14 14 15 14 14 14 14 14 14 14 14 14 14 14 14 14 14 14 14 14 14 15 15 15 15 15 15 15 15
15 15 15 15 15 15 14 14 14 14 14 14 14 14 14 14 14 14 14 14 14 14 14 14 14 14 14 14 13 13 14 14 14 14 14 14 14 14 14 14 14 15 15
15 14 15 14 14 14 14 14 14 14 14 14 14 14 14 14 14 14 14 14 14 14 14 14 14 14 14 13 13 13 13 13 14 14 14 14 14 14 14 14 14 14 14
14 14 14 14 14 14 14 14 14 14 14 14 14 14 14 14 14 14 14 14 14 13 13 13 14 13 13 13 13 13 13 13 13 13 14 14 14 14 14 14 14 14 14
14 14 14 14 14 14 14 14 14 14 14 14 14 14 14 14 14 14 13 13 13 13 13 13 13 13 13 13 13 13 13 13 13 13 13 13 13 13 14 14 14 14 14
14 14 14 14 14 14 14 14 14 14 13 13 13 13 13 13 13 13 13 13 13 13 13 13 13 13 13 13 13 13 13 13 13 13 13 13 13 13 13 13 13 13 13
14 14 14 14 13 13 13 13 13 13 13 13 13 13 13 13 13 13 13 13 13 13 13 13 13 13 13 13 13 13 13 13 13 13 13 13 13 13 13 13 13 13 13
14 14 13 13 13 13 13 13 13 13 13 13 13 13 13 13 12 13 13 13 13 13 13 13 13 13 13 13 13 13 13 13 13 13 13 13 13 13 13 13 13 13 13
13 13 13 13 13 13 13 13 12 12 12 12 12 13 13 12 12 12 12 12 12 12 12 12 12 12 12 12 12 12 12 12 13 13 12 12 12 12 12 13 13 13 13
13 13 13 13 12 12 12 12 12 12 12 12 12 12 12 12 12 12 12 12 12 12 12 12 12 12 12 12 12 12 12 12 12 12 12 12 12 12 12 12 12 12 12
13 13 13 12 12 12 12 12 12 12 12 12 12 12 12 12 12 12 12 12 12 12 12 12 12 12 12 12 12 12 12 12 12 12 12 12 12 12 12 12 12 12 12
13 13 12 12 12 12 12 12 12 12 12 12 12 12 12 12 12 12 12 11 11 11 12 12 12 12 12 12 12 12 12 12 12 12 12 12 12 12 12 12 12 12 12
13 13 12 12 12 12 12 12 12 12 12 12 11 11 11 11 11 11 11 11 11 11 11 11 12 12 12 12 12 12 12 12 12 12 12 11 11 11 12 12 12 12 12
12 12 12 12 12 12 12 12 12 11 11 11 11 11 11 11 11 11 11 11 11 10 11 11 11 11 11 11 11 11 12 12 12 11 11 11 11 11 11 11 11 12 12
12 12 12 12 12 11 11 11 11 11 11 11 11 11 11 11 11 11 11 11 11 10 10 11 11 11 11 11 11 11 11 11 11 11 11 11 11 11 11 11 11 11 11
12 12 12 12 11 11 11 11 11 11 11 11 11 11 11 11 10 10 10 10 10 10 10 10 11 11 11 11 11 11 11 11 11 11 11 11 11 11 11 11 11 11 11
12 12 12 11 11 11 11 11 11 11 11 11 11 10 10 10 10 10 10 10 10 10 10 10 10 10 10 10 10 10 11 11 11 11 11 11 11 11 11 11 11 11 11
12 12 11 11 11 11 11 11 11 11 10 10 10 10 10 10 10 10 10 10 10 10 10 10 10 10 10 10 10 10 10 10 10 10 10 10 10 10 10 10 10 10 10
12 12 11 11 11 11 11 11 10 10 10 10 10 10 10 10 10 10 9 9 9 9 9 9 9 9 9 10 10 10 10 10 10 10 10 10 10 10 10 10 10 10 10
12 11 11 11 11 11 11 10 10 10 10 10 10 10 10 9 9 9 9 9 9 9 9 9 9 9 9 9 9 9 9 9 9 9 10 10 10 10 10 10 10 10 10
11 11 11 11 11 11 10 10 10 10 10 10 10 9 9 9 9 9 9 9 9 9 9 9 9 9 8 8 8 8 8 9 9 9 9 9 9 9 9 9 9 9 9
11 11 11 11 10 10 10 10 10 10 9 9 9 9 9 9 9 9 9 9 8 8 8 8 8 8 8 8 8 8 8 8 8 8 8 9 9 9 9 9 9 9 9
11 11 10 10 10 10 10 10 10 9 9 9 9 9 9 9 8 8 8 8 8 8 8 8 8 8 8 8 8 7 7 7 8 8 8 8 8 8 9 9 9 9 8
10 10 10 10 10 10 10 9 9 9 9 9 9 8 8 8 8 8 8 8 8 8 8 8 8 7 7 7 7 7 7 7 7 7 7 7 7 8 8 8 8 8 8
10 10 10 10 9 9 9 9 9 9 8 8 8 8 8 8 8 8 8 8 7 8 7 7 7 7 7 7 7 7 7 7 7 7 7 7 7 7 7 7 7 7 7
Wind_Speed
3 3 4 4 5 5 4 4 4 5 5 5 5 5 4 4 5 5 6 8 8 8 9 9 9 9 9 9 9 9 9 9 9 8 8 8 7 7 7 7 7 6 6
3 3 3 4 4 4 5 4 4 4 4 4 4 4 4 4 5 5 6 6 8 9 8 9 8 8 8 9 9 9 8 9 9 9 8 8 8 7 7 7 7 7 7
4 3 3 3 3 4 5 5 5 5 4 4 4 4 3 4 4 4 5 5 6 8 8 8 8 8 7 8 8 9 8 8 8 8 8 8 8 7 7 7 7 7 7
5 4 3 2 3 4 4 3 3 4 4 4 3 3 3 3 4 4 4 5 6 6 7 8 7 7 7 7 7 8 8 8 7 7 7 7 8 8 8 8 7 7 7
5 5 3 3 4 4 3 3 3 3 3 3 3 4 4 3 3 4 4 5 5 5 5 6 7 7 7 7 8 7 7 7 7 7 6 7 7 8 8 8 8 7 7
5 5 4 4 4 3 3 3 3 4 3 2 3 4 4 3 3 3 3 4 5 5 6 6 6 6 7 7 8 8 8 7 6 6 7 7 7 7 7 8 7 7 7
5 5 4 3 3 3 3 3 3 4 3 2 3 3 4 4 4 4 3 3 4 5 6 6 5 5 5 7 8 8 8 7 6 6 7 7 7 7 7 7 7 6 6
4 4 4 3 3 3 4 3 3 2 2 3 2 2 3 4 4 4 3 3 3 4 4 5 5 5 5 5 6 7 8 7 6 5 6 6 7 7 6 6 6 6 7
3 3 3 3 3 3 2 2 2 2 1 2 2 2 2 1 2 3 3 3 4 3 3 4 5 5 5 4 5 5 6 6 6 5 5 5 6 5 6 5 5 5 6
3 3 3 3 2 2 2 1 2 1 2 1 2 2 1 2 1 2 3 3 4 3 3 3 4 5 4 3 3 4 4 5 5 4 4 5 5 5 5 5 5 4 4
1 2 3 3 2 2 2 2 2 2 1 2 1 1 2 2 2 2 1 3 3 3 3 3 3 4 5 4 3 3 4 4 4 4 4 4 4 4 4 5 5 5 4
1 1 2 2 2 2 2 2 2 2 2 2 1 1 1 1 1 2 1 1 2 3 3 3 2 3 4 4 4 4 4 4 4 4 4 3 3 3 4 4 4 4 4
2 2 2 2 2 2 2 2 2 2 2 2 1 1 1 1 1 2 2 1 1 2 2 2 2 3 4 5 5 5 4 4 4 4 3 3 3 3 3 4 4 4 4
3 3 3 3 2 2 2 2 2 1 1 1 1 1 1 0 1 2 2 2 0 2 2 3 2 3 4 4 5 5 4 4 4 4 3 2 2 3 3 3 3 4 3
3 3 3 3 3 3 3 3 2 2 2 2 2 2 1 1 1 1 2 2 3 1 2 3 2 3 4 4 5 5 4 5 4 4 3 3 3 3 3 3 3 3 3
3 3 3 4 3 3 3 3 2 2 2 1 1 2 1 1 1 1 1 1 2 3 2 2 2 3 3 4 5 5 4 5 5 4 4 3 3 3 2 2 2 3 3
4 4 4 4 4 4 4 4 3 3 3 2 2 2 2 1 1 1 1 1 1 2 3 3 2 2 2 3 4 4 4 4 4 5 4 4 4 3 2 2 2 3 2
4 5 4 4 4 4 4 5 5 4 4 3 3 2 3 2 2 1 2 2 2 2 3 3 2 2 2 3 3 3 4 4 4 4 4 4 4 3 2 3 2 2 1
4 4 4 5 5 5 5 5 5 5 5 5 4 4 4 3 3 2 2 2 2 2 2 2 2 1 2 2 2 3 3 3 4 4 4 4 4 3 3 3 3 2 2
5 5 5 5 5 5 5 5 5 5 4 4 4 5 5 5 5 4 3 3 3 2 2 2 2 2 2 2 1 2 3 2 3 3 4 4 4 3 3 3 3 3 3
5 5 5 4 4 4 5 5 5 5 5 4 4 5 5 6 7 5 4 4 4 3 2 2 2 2 2 1 2 2 2 2 2 2 2 2 2 2 3 4 4 4 4
4 4 5 5 5 5 6 7 6 4 5 5 5 5 5 5 6 7 6 6 5 4 4 3 3 3 4 4 2 2 1 1 3 2 1 2 1 2 3 3 4 4 3
4 4 5 5 6 6 7 8 8 5 5 5 5 5 4 3 3 3 4 5 5 6 7 5 5 6 5 5 3 3 2 2 3 2 1 2 1 2 3 3 3 3 3
4 5 5 5 5 6 8 8 7 5 4 5 5 5 4 4 4 4 3 3 3 4 5 5 6 6 6 5 5 5 4 3 2 2 1 2 2 2 3 3 3 2 3
4 4 4 4 5 6 7 7 6 3 3 4 4 4 4 5 6 5 4 3 3 4 5 5 6 5 5 4 3 2 1 1 2 2 1 2 1 1 2 2 3 3 3
4 4 4 4 5 5 6 6 6 3 3 3 3 3 6 6 6 5 5 4 4 4 3 2 3 3 3 2 3 4 4 3 2 3 2 2 2 1 1 1 1 3 2
Wind_Direction
50 40 39 42 44 50 53 52 53 48 44 51 61 64 55 52 50 45 33 37 46 52 55 57 57 54 53 53 52 52 51 46 46 46 47 47 48 49 45 46 43 42 45
79 65 52 46 40 46 55 59 58 54 46 50 56 56 51 49 47 46 38 34 39 47 52 53 53 53 53 52 50 48 48 45 44 47 47 45 45 43 42 45 44 45 44
87 82 68 51 37 47 59 63 56 56 50 44 43 44 52 51 47 45 45 40 34 38 47 50 51 54 52 52 48 44 44 42 42 45 48 46 45 43 41 43 44 44 43
89 87 79 56 48 56 59 61 52 53 45 39 32 27 38 46 42 43 48 45 41 35 38 43 45 51 52 51 46 41 38 37 38 44 48 47 46 45 42 40 41 43 43
90 92 87 65 62 60 52 61 53 59 54 41 42 34 29 32 30 45 45 41 39 34 30 32 35 41 45 43 40 35 31 33 39 40 46 50 46 43 41 41 40 42 42
93 93 86 73 72 70 57 58 65 55 59 49 57 43 25 26 36 41 37 34 32 36 35 32 26 24 32 34 32 28 25 28 37 42 45 44 42 40 38 38 39 44 46
100 97 87 81 75 78 74 73 74 65 46 26 59 32 18 30 38 33 31 35 28 27 35 33 28 24 19 23 23 20 19 26 33 38 40 38 37 35 35 36 36 41 46
109 106 106 98 91 87 74 63 67 77 43 29 76 71 16 3 11 21 22 32 17 22 28 27 27 24 22 17 13 17 15 23 29 34 36 35 34 32 30 31 33 37 41
108 108 117 111 109 104 102 86 83 99 99 29 46 116 123 229 328 350 10 18 13 17 14 18 19 10 11 7 2 9 12 17 22 28 30 30 27 25 25 23 24 28 30
114 123 124 118 115 109 111 100 93 97 112 80 31 43 98 156 139 340 344 356 3 11 0 7 4 359 360 351 348 355 356 1 5 15 21 23 20 16 13 16 17 18 19
112 130 133 128 132 129 135 112 95 93 103 121 115 92 68 56 85 141 298 330 348 343 345 345 348 347 348 343 332 325 333 342 348 351 1 8 8 6 3 4 9 13 19
175 157 144 142 149 143 151 150 136 123 110 106 106 109 129 132 151 150 197 275 308 311 330 334 340 339 343 344 335 331 325 329 334 337 342 347 352 0 1 357 357 1 6
208 212 177 169 167 171 161 142 143 142 139 135 141 139 143 156 153 156 159 218 283 302 324 327 326 335 338 341 336 333 325 324 324 318 326 338 345 346 351 349 349 349 350
210 203 185 178 184 172 160 145 145 165 147 157 164 153 152 184 155 167 166 156 311 321 326 303 316 322 326 332 326 329 324 325 323 314 311 313 315 323 329 329 329 334 338
205 188 184 187 186 176 167 156 160 183 162 175 187 179 181 225 187 196 171 166 162 217 287 292 302 314 327 329 328 326 314 324 326 324 316 308 303 300 304 316 319 325 334
205 186 190 192 190 186 176 169 172 187 166 191 184 181 206 226 207 197 188 172 169 178 231 271 270 296 320 324 328 326 315 327 330 321 319 309 301 291 289 301 312 318 309
200 198 198 194 194 196 190 181 193 182 185 208 205 197 224 217 209 207 182 175 186 176 217 273 274 295 306 313 325 326 320 320 317 315 319 312 302 293 293 298 295 299 294
204 204 200 199 205 205 196 195 205 198 198 210 219 211 228 217 215 218 198 206 215 204 199 245 277 298 288 292 306 315 326 317 303 307 315 310 304 301 301 309 310 295 271
205 207 200 207 213 211 206 208 206 207 208 214 214 214 223 204 222 228 214 221 230 223 199 212 261 276 285 299 314 316 319 318 311 305 311 302 295 292 293 299 306 298 283
205 210 212 215 216 213 210 208 206 212 217 222 220 221 222 210 218 219 223 223 217 208 200 211 245 270 275 285 291 299 314 313 303 320 319 310 303 296 296 296 295 289 277
214 214 212 219 220 215 212 202 205 213 215 226 234 235 232 223 221 218 221 213 200 203 211 221 238 259 266 261 255 256 278 302 293 294 311 311 312 312 305 297 287 278 276
213 209 215 217 221 229 225 213 206 210 212 216 232 243 245 238 236 232 234 225 208 203 212 217 231 235 248 242 245 244 254 308 297 298 300 291 290 285 296 289 286 275 269
216 217 221 220 226 235 233 226 217 208 213 216 221 231 243 237 231 229 240 240 238 236 222 215 228 235 237 232 224 237 230 227 250 263 219 271 281 279 293 292 289 273 271
223 226 230 228 232 240 237 234 223 201 205 219 220 220 220 226 227 219 211 220 241 253 246 232 229 236 235 228 213 217 225 242 264 273 194 242 276 275 304 304 302 287 286
230 230 231 230 234 247 243 234 205 195 210 224 224 221 215 221 234 224 202 216 251 270 266 247 250 254 257 251 218 179 194 217 263 264 215 210 245 271 288 284 303 300 291
230 230 236 235 235 246 252 233 208 196 207 224 233 231 229 229 234 218 201 205 235 256 253 271 280 280 275 260 223 205 205 210 233 251 219 197 219 234 290 291 315 328 309
Height
1531 1531 1531 1531 1531 1531 1531 1531 1531 1531 1531 1531 1532 1532 1532 1532 1532 1532 1532 1531 1531 1531 1530 1529 1529 1528 1528 1528 1527 1527 1527 1527 1527 1526 1526 1526 1526 1525 1525 1525 1525 1525 1524
1532 1532 1532 1532 1532 1532 1532 1532 1532 1532 1532 1532 1532 1532 1532 1532 1532 1532 1532 1532 1532 1532 1531 1530 1530 1529 1529 1529 1528 1528 1527 1527 1527 1526 1526 1526 1526 1526 1525 1525 1525 1525 1524
1533 1533 1533 1533 1533 1533 1533 1533 1533 1533 1533 1533 1533 1533 1533 1533 1533 1533 1533 1533 1533 1532 1532 1531 1531 1530 1529 1529 1528 1528 1528 1527 1527 1526 1526 1526 1526 1526 1525 1525 1525 1525 1524
1534 1534 1534 1534 1534 1534 1533 1533 1533 1533 1533 1533 1533 1533 1533 1533 1533 1534 1534 1534 1533 1533 1532 1532 1531 1531 1530 1530 1529 1528 1528 1527 1527 1526 1526 1526 1526 1526 1526 1525 1525 1525 1524
1534 1534 1534 1534 1534 1534 1533 1533 1533 1533 1533 1533 1533 1533 1533 1534 1534 1534 1534 1534 1534 1533 1532 1532 1531 1531 1530 1530 1529 1529 1528 1527 1527 1526 1526 1526 1526 1526 1526 1525 1525 1525 1524
1534 1534 1534 1533 1533 1533 1533 1533 1533 1533 1533 1533 1533 1533 1534 1534 1534 1534 1534 1534 1534 1533 1533 1532 1532 1531 1530 1530 1529 1529 1528 1527 1527 1527 1526 1526 1526 1526 1526 1525 1525 1524 1524
1533 1533 1533 1533 1533 1533 1533 1533 1533 1533 1533 1533 1533 1533 1534 1534 1534 1534 1534 1534 1534 1533 1533 1532 1532 1531 1530 1530 1529 1529 1528 1527 1527 1527 1526 1526 1526 1526 1525 1525 1525 1524 1524
1533 1533 1533 1533 1533 1533 1533 1533 1533 1533 1532 1533 1533 1533 1533 1535 1534 1534 1534 1534 1533 1533 1533 1532 1532 1531 1530 1530 1529 1529 1528 1527 1527 1527 1526 1526 1526 1525 1525 1525 1525 1524 1523
1532 1532 1532 1532 1532 1532 1532 1533 1533 1532 1532 1533 1533 1533 1533 1533 1533 1533 1533 1533 1533 1533 1532 1532 1531 1531 1530 1530 1529 1529 1528 1527 1527 1527 1527 1526 1526 1525 1525 1524 1524 1523 1523
1532 1532 1532 1532 1532 1532 1532 1532 1532 1532 1532 1532 1532 1532 1533 1533 1533 1532 1533 1533 1532 1532 1532 1531 1531 1530 1530 1529 1529 1528 1528 1527 1527 1526 1526 1526 1525 1525 1525 1524 1523 1523 1523
1531 1531 1531 1531 1531 1531 1531 1531 1531 1531 1531 1531 1531 1531 1532 1532 1532 1532 1532 1532 1532 1531 1531 1531 1530 1530 1529 1529 1528 1528 1527 1527 1526 1526 1525 1525 1525 1524 1524 1524 1523 1523 1522
1530 1530 1530 1531 1531 1531 1530 1530 1530 1530 1530 1530 1530 1531 1531 1531 1531 1531 1530 1530 1530 1530 1530 1530 1529 1529 1529 1528 1528 1527 1527 1526 1525 1525 1524 1524 1523 1523 1523 1523 1523 1522 1522
1528 1529 1529 1530 1530 1530 1529 1529 1529 1529 1529 1529 1529 1529 1530 1530 1530 1530 1529 1529 1528 1528 1528 1529 1528 1528 1528 1527 1526 1526 1525 1525 1524 1523 1523 1522 1522 1522 1522 1522 1522 1521 1521
1527 1527 1528 1528 1528 1528 1528 1528 1528 1528 1528 1528 1528 1528 1528 1528 1528 1528 1528 1528 1527 1527 1527 1527 1527 1527 1526 1526 1525 1524 1524 1523 1522 1522 1521 1521 1521 1521 1521 1520 1520 1520 1520
1524 1525 1525 1526 1526 1526 1526 1526 1526 1526 1527 1527 1527 1527 1527 1527 1527 1527 1527 1526 1527 1525 1525 1525 1525 1525 1525 1524 1524 1523 1522 1521 1521 1520 1520 1519 1519 1519 1519 1519 1519 1519 1518
1522 1522 1523 1523 1523 1524 1524 1524 1524 1524 1524 1524 1524 1525 1525 1525 1525 1525 1525 1524 1524 1524 1523 1523 1523 1523 1523 1522 1522 1521 1520 1520 1519 1518 1518 1517 1517 1517 1517 1517 1517 1517 1517
1519 1519 1520 1520 1520 1521 1521 1521 1521 1522 1522 1522 1522 1522 1522 1522 1522 1522 1522 1522 1522 1522 1521 1520 1521 1521 1520 1520 1520 1519 1518 1518 1517 1517 1516 1515 1515 1515 1515 1515 1515 1515 1515
1516 1516 1517 1517 1517 1518 1518 1518 1518 1519 1519 1519 1519 1519 1519 1519 1520 1520 1520 1519 1519 1519 1519 1518 1518 1518 1518 1518 1517 1516 1516 1515 1515 1514 1514 1513 1513 1513 1513 1512 1512 1513 1513
1513 1513 1514 1514 1514 1514 1514 1514 1515 1515 1515 1516 1516 1516 1516 1516 1516 1517 1517 1516 1516 1516 1516 1515 1514 1515 1515 1515 1514 1514 1513 1513 1512 1512 1512 1511 1511 1511 1510 1510 1510 1510 1510
1509 1509 1510 1510 1510 1511 1511 1511 1511 1511 1512 1512 1512 1512 1512 1513 1513 1513 1513 1513 1513 1513 1513 1512 1512 1511 1511 1511 1511 1510 1510 1510 1509 1509 1509 1509 1508 1508 1508 1508 1508 1508 1508
1505 1506 1506 1506 1506 1507 1507 1507 1507 1507 1507 1508 1508 1508 1509 1509 1509 1509 1510 1509 1509 1509 1509 1508 1508 1508 1508 1508 1508 1507 1507 1506 1506 1506 1505 1506 1506 1505 1505 1505 1506 1505 1505
1501 1501 1502 1502 1502 1502 1503 1503 1503 1503 1503 1503 1504 1504 1505 1505 1505 1505 1506 1506 1506 1506 1505 1505 1504 1504 1504 1504 1504 1504 1503 1503 1502 1503 1502 1502 1503 1502 1502 1503 1503 1503 1503
1497 1497 1497 1498 1498 1498 1499 1499 1499 1499 1499 1499 1499 1500 1500 1500 1501 1501 1501 1501 1501 1501 1502 1502 1500 1500 1500 1500 1501 1500 1500 1500 1499 1499 1499 1499 1499 1499 1499 1499 1500 1500 1500
1492 1493 1493 1493 1494 1494 1494 1494 1494 1494 1495 1495 1495 1496 1496 1496 1496 1497 1497 1497 1497 1497 1497 1497 1497 1496 1497 1497 1497 1497 1497 1497 1497 1497 1496 1495 1495 1495 1496 1496 1496 1497 1497
1488 1488 1488 1489 1489 1489 1490 1490 1490 1490 1490 1491 1491 1491 1492 1492 1492 1492 1492 1492 1492 1492 1493 1493 1493 1492 1493 1493 1493 1493 1493 1493 1492 1492 1493 1492 1491 1492 1492 1492 1493 1493 1493
1484 1484 1484 1485 1485 1485 1485 1486 1486 1486 1486 1486 1487 1487 1487 1487 1488 1488 1488 1487 1487 1487 1488 1488 1488 1488 1488 1488 1488 1489 1489 1489 1488 1488 1488 1488 1488 1488 1488 1488 1489 1489 1489